Temp
-8 -7 -7 -7 -7 -7 -7 -6 -7 -7 -6 -7 -7 -7 -6 -5 -5 -6 -7 -7 -6 -6 -7 -6 -5 -6 -5 -6 -6 -6 -6 -6 -7 -6 -6 -6 -6 -6 -6 -6 -7 -7 -7 -7
-8 -8 -8 -8 -8 -7 -7 -7 -7 -7 -6 -6 -7 -7 -6 -6 -5 -5 -6 -7 -7 -6 -6 -6 -6 -6 -6 -6 -6 -6 -6 -6 -6 -6 -6 -6 -6 -6 -7 -7 -7 -6 -6 -7
-8 -8 -8 -8 -8 -8 -7 -7 -7 -7 -6 -6 -6 -6 -7 -6 -6 -5 -6 -7 -6 -6 -6 -6 -7 -6 -6 -6 -6 -6 -6 -6 -6 -6 -7 -6 -6 -6 -7 -7 -7 -7 -7 -7
-8 -8 -8 -8 -8 -8 -8 -8 -8 -7 -6 -6 -6 -7 -6 -6 -6 -6 -6 -7 -7 -6 -6 -6 -6 -6 -6 -6 -6 -6 -6 -6 -6 -6 -7 -6 -6 -6 -6 -6 -7 -7 -7 -7
-8 -8 -8 -8 -8 -8 -9 -9 -8 -8 -7 -6 -7 -7 -7 -7 -6 -7 -7 -8 -8 -8 -7 -6 -6 -6 -6 -6 -6 -6 -6 -6 -7 -6 -6 -6 -6 -6 -6 -6 -6 -6 -6 -7
-9 -9 -8 -8 -8 -9 -9 -9 -9 -8 -7 -7 -7 -7 -7 -6 -7 -7 -7 -7 -7 -7 -8 -8 -6 -6 -6 -6 -6 -6 -6 -6 -7 -6 -6 -6 -6 -6 -6 -6 -6 -6 -6 -6
-9 -9 -9 -9 -8 -9 -9 -9 -9 -9 -8 -8 -8 -8 -7 -7 -7 -7 -6 -7 -6 -6 -7 -7 -7 -7 -7 -6 -6 -6 -6 -6 -6 -6 -6 -6 -6 -6 -6 -6 -6 -5 -6 -6
-9 -9 -9 -9 -9 -9 -9 -9 -9 -9 -8 -8 -9 -8 -8 -7 -7 -7 -7 -7 -6 -6 -6 -6 -6 -7 -7 -7 -6 -6 -6 -6 -6 -6 -6 -6 -6 -6 -6 -6 -6 -5 -5 -5
-11 -10 -10 -10 -10 -10 -10 -9 -9 -9 -9 -9 -9 -9 -8 -8 -7 -7 -7 -7 -7 -6 -7 -6 -6 -6 -6 -7 -7 -7 -6 -6 -6 -6 -6 -6 -6 -6 -6 -6 -6 -6 -5 -5
-12 -12 -11 -11 -10 -11 -11 -11 -10 -9 -9 -9 -9 -9 -9 -8 -8 -8 -8 -8 -7 -7 -7 -8 -7 -6 -6 -7 -7 -7 -7 -6 -6 -6 -6 -6 -6 -6 -6 -5 -5 -6 -5 -5
-14 -14 -13 -12 -12 -11 -11 -11 -11 -10 -10 -9 -9 -9 -8 -9 -8 -7 -8 -8 -8 -7 -8 -8 -7 -7 -7 -6 -7 -6 -6 -6 -6 -6 -6 -5 -5 -5 -6 -6 -5 -5 -5 -5
-14 -14 -14 -13 -13 -12 -12 -12 -11 -11 -10 -10 -9 -9 -9 -8 -8 -8 -7 -8 -8 -8 -8 -8 -8 -8 -7 -7 -7 -6 -6 -6 -6 -6 -6 -5 -5 -5 -5 -5 -6 -5 -5 -5
-15 -15 -14 -14 -14 -13 -12 -12 -12 -11 -11 -10 -10 -9 -9 -9 -9 -8 -8 -7 -7 -9 -8 -8 -8 -8 -8 -7 -7 -7 -6 -6 -6 -6 -6 -5 -5 -5 -5 -5 -5 -5 -5 -5
-16 -15 -14 -14 -14 -13 -13 -13 -12 -12 -12 -11 -10 -9 -8 -8 -9 -9 -9 -8 -7 -7 -7 -8 -8 -8 -8 -7 -7 -6 -6 -6 -6 -6 -6 -5 -5 -5 -5 -5 -5 -5 -5 -5
-15 -15 -15 -14 -14 -13 -13 -13 -13 -13 -13 -13 -12 -11 -10 -9 -9 -9 -9 -9 -8 -8 -7 -7 -8 -8 -7 -7 -7 -7 -7 -7 -6 -6 -6 -5 -5 -5 -5 -5 -5 -5 -5 -5
-15 -15 -14 -14 -14 -14 -14 -14 -13 -13 -13 -13 -13 -12 -11 -10 -9 -10 -9 -10 -10 -9 -8 -8 -7 -8 -8 -7 -7 -7 -7 -7 -7 -7 -7 -6 -5 -5 -5 -5 -5 -5 -5 -5
-15 -15 -15 -14 -14 -14 -14 -14 -14 -13 -13 -13 -13 -13 -12 -12 -11 -10 -11 -10 -10 -10 -10 -9 -8 -8 -7 -7 -8 -8 -7 -7 -7 -7 -7 -8 -7 -6 -6 -5 -6 -5 -5 -5
-16 -16 -16 -15 -15 -14 -14 -14 -14 -14 -14 -13 -13 -13 -13 -12 -12 -12 -12 -12 -11 -10 -10 -10 -9 -8 -8 -7 -7 -8 -7 -7 -7 -7 -8 -7 -7 -7 -7 -6 -5 -6 -6 -5
-17 -16 -17 -17 -16 -15 -15 -15 -15 -15 -15 -14 -14 -14 -14 -13 -13 -12 -12 -12 -12 -11 -11 -10 -10 -9 -9 -8 -7 -8 -7 -8 -8 -8 -7 -7 -7 -7 -7 -7 -6 -6 -6 -5
-17 -17 -17 -17 -18 -17 -16 -16 -16 -16 -15 -15 -15 -15 -15 -14 -13 -13 -13 -13 -13 -12 -11 -11 -10 -10 -9 -9 -8 -8 -8 -8 -8 -8 -8 -8 -7 -7 -7 -7 -7 -7 -6 -6
-17 -17 -17 -18 -18 -17 -17 -17 -17 -16 -16 -16 -15 -15 -15 -15 -14 -14 -13 -13 -13 -13 -12 -11 -11 -11 -10 -10 -9 -8 -8 -8 -8 -8 -8 -8 -8 -7 -7 -7 -7 -7 -7 -6
-18 -18 -18 -18 -18 -18 -17 -17 -17 -17 -16 -16 -16 -16 -16 -16 -16 -16 -15 -13 -13 -12 -12 -12 -11 -11 -11 -11 -9 -8 -8 -8 -8 -9 -9 -8 -7 -7 -7 -7 -7 -6 -7 -7
-17 -18 -18 -18 -18 -18 -18 -18 -17 -17 -17 -17 -16 -16 -16 -16 -16 -16 -15 -14 -14 -12 -12 -12 -12 -12 -11 -10 -10 -10 -9 -8 -8 -8 -8 -7 -7 -8 -6 -7 -6 -6 -7 -7
-17 -17 -17 -18 -18 -18 -18 -18 -18 -18 -18 -18 -18 -17 -17 -17 -17 -16 -16 -16 -15 -14 -12 -12 -12 -12 -12 -11 -11 -10 -10 -10 -9 -9 -8 -7 -7 -7 -7 -8 -7 -7 -6 -6
-18 -18 -18 -18 -18 -18 -18 -18 -18 -18 -18 -18 -19 -19 -18 -18 -18 -17 -17 -16 -16 -16 -15 -12 -12 -12 -12 -12 -11 -10 -10 -10 -9 -9 -8 -8 -8 -7 -7 -7 -7 -7 -7 -7
-18 -19 -18 -18 -18 -18 -18 -19 -19 -19 -19 -19 -19 -19 -19 -19 -18 -18 -18 -17 -17 -17 -18 -16 -12 -12 -12 -12 -12 -11 -10 -10 -10 -9 -10 -8 -8 -9 -9 -8 -8 -7 -7 -7
Height
5832 5837 5842 5844 5846 5851 5856 5860 5863 5867 5872 5877 5878 5882 5884 5887 5890 5893 5896 5898 5899 5901 5903 5905 5906 5909 5913 5917 5920 5921 5924 5926 5926 5929 5931 5934 5935 5935 5934 5935 5936 5937 5936 5937
5829 5834 5836 5839 5843 5845 5850 5854 5858 5863 5868 5876 5878 5880 5885 5889 5891 5892 5894 5898 5899 5900 5902 5903 5905 5909 5911 5915 5919 5922 5925 5926 5927 5930 5933 5936 5937 5937 5938 5938 5939 5939 5939 5939
5825 5829 5831 5834 5838 5843 5848 5851 5853 5858 5863 5871 5876 5880 5884 5888 5892 5893 5893 5896 5898 5900 5900 5901 5903 5907 5910 5913 5918 5921 5924 5925 5926 5931 5934 5936 5938 5939 5941 5940 5940 5941 5941 5941
5819 5822 5827 5831 5836 5841 5845 5848 5849 5852 5859 5866 5872 5877 5881 5885 5889 5892 5892 5894 5896 5897 5898 5899 5901 5903 5907 5910 5914 5919 5923 5925 5926 5930 5933 5936 5938 5941 5942 5942 5942 5943 5943 5943
5813 5817 5822 5828 5833 5837 5841 5841 5844 5847 5854 5860 5867 5875 5879 5884 5888 5890 5890 5890 5892 5894 5896 5896 5897 5900 5903 5908 5912 5916 5921 5924 5927 5929 5932 5935 5939 5940 5943 5944 5943 5945 5946 5945
5804 5810 5816 5821 5826 5832 5833 5838 5842 5845 5849 5856 5860 5869 5874 5878 5879 5876 5879 5882 5885 5888 5891 5895 5897 5900 5902 5906 5910 5915 5920 5922 5926 5929 5932 5935 5938 5939 5942 5945 5945 5946 5946 5945
5797 5803 5809 5815 5820 5825 5829 5833 5837 5841 5845 5851 5855 5863 5869 5872 5875 5876 5879 5881 5882 5883 5885 5890 5895 5899 5903 5906 5909 5913 5919 5921 5924 5927 5931 5933 5936 5938 5940 5943 5946 5947 5947 5945
5791 5796 5801 5807 5812 5818 5822 5828 5833 5835 5840 5846 5850 5855 5863 5866 5869 5870 5874 5878 5882 5885 5887 5887 5890 5895 5899 5903 5905 5910 5916 5919 5922 5925 5928 5932 5934 5938 5940 5942 5944 5947 5947 5946
5785 5789 5793 5799 5803 5810 5814 5820 5827 5832 5835 5840 5844 5849 5857 5859 5862 5866 5869 5871 5876 5881 5885 5888 5888 5892 5895 5898 5904 5907 5910 5915 5919 5923 5924 5928 5931 5934 5937 5940 5943 5946 5948 5947
5780 5783 5786 5791 5797 5802 5807 5813 5819 5824 5828 5832 5836 5842 5847 5853 5856 5860 5865 5869 5873 5876 5879 5883 5886 5887 5891 5894 5897 5902 5905 5909 5914 5918 5922 5925 5928 5931 5933 5936 5940 5944 5947 5947
5776 5778 5782 5786 5789 5794 5799 5805 5811 5817 5822 5824 5830 5835 5840 5846 5850 5855 5861 5866 5869 5873 5876 5879 5880 5883 5885 5889 5892 5897 5901 5905 5910 5915 5918 5922 5926 5929 5931 5935 5937 5940 5944 5946
5772 5773 5776 5780 5783 5787 5792 5797 5803 5807 5815 5818 5823 5829 5832 5838 5844 5849 5853 5859 5863 5867 5870 5873 5877 5880 5883 5884 5885 5891 5895 5900 5905 5908 5912 5917 5920 5925 5929 5932 5934 5937 5939 5941
5763 5766 5769 5772 5777 5781 5785 5791 5796 5801 5805 5809 5815 5821 5827 5831 5836 5841 5847 5851 5855 5859 5863 5867 5871 5875 5879 5883 5883 5886 5890 5894 5897 5902 5906 5911 5915 5919 5924 5927 5929 5933 5936 5937
5757 5760 5763 5766 5770 5775 5779 5783 5788 5794 5797 5800 5804 5812 5818 5822 5828 5833 5838 5844 5847 5851 5855 5859 5864 5867 5872 5875 5880 5883 5885 5888 5891 5896 5901 5904 5909 5914 5917 5920 5922 5926 5931 5934
5750 5753 5756 5759 5762 5767 5772 5776 5781 5785 5788 5791 5796 5801 5806 5812 5817 5823 5828 5833 5839 5842 5847 5851 5855 5859 5864 5868 5872 5876 5879 5883 5886 5890 5894 5899 5903 5906 5910 5914 5918 5921 5924 5928
5742 5746 5749 5753 5755 5760 5764 5768 5772 5777 5779 5781 5786 5792 5796 5801 5806 5812 5818 5823 5828 5833 5837 5841 5845 5849 5853 5859 5864 5867 5870 5873 5879 5883 5888 5890 5894 5899 5904 5908 5912 5915 5919 5922
5735 5737 5740 5744 5747 5751 5756 5760 5764 5767 5770 5773 5776 5781 5786 5792 5795 5800 5806 5811 5817 5823 5827 5832 5836 5839 5844 5848 5853 5859 5862 5866 5872 5876 5880 5882 5886 5890 5896 5899 5903 5910 5913 5915
5727 5730 5732 5735 5738 5742 5748 5751 5754 5757 5761 5762 5765 5769 5773 5777 5782 5787 5791 5798 5803 5809 5816 5820 5825 5830 5833 5838 5842 5846 5852 5857 5862 5867 5871 5875 5879 5883 5886 5891 5897 5902 5905 5908
5719 5721 5725 5727 5730 5735 5738 5742 5745 5747 5751 5752 5754 5756 5759 5763 5768 5775 5779 5784 5790 5795 5800 5807 5813 5819 5823 5827 5831 5836 5839 5846 5850 5857 5861 5865 5871 5874 5878 5881 5886 5891 5896 5901
5712 5713 5716 5720 5723 5725 5728 5731 5734 5736 5741 5742 5741 5744 5746 5749 5754 5759 5764 5770 5777 5781 5785 5791 5799 5804 5811 5814 5820 5825 5828 5834 5838 5844 5848 5852 5859 5862 5867 5871 5875 5878 5884 5890
5704 5705 5707 5708 5712 5717 5719 5722 5724 5728 5733 5729 5730 5731 5734 5737 5741 5744 5748 5754 5761 5768 5772 5776 5782 5790 5796 5801 5806 5813 5818 5823 5826 5831 5836 5840 5846 5851 5856 5861 5865 5869 5874 5878
5701 5700 5700 5701 5704 5709 5711 5714 5717 5718 5719 5720 5720 5721 5722 5724 5726 5729 5731 5736 5743 5751 5757 5761 5767 5774 5781 5787 5792 5797 5804 5810 5815 5820 5825 5829 5834 5836 5842 5849 5854 5856 5861 5867
5699 5699 5698 5698 5698 5699 5701 5703 5705 5707 5708 5708 5708 5709 5710 5711 5712 5715 5716 5718 5723 5731 5739 5744 5752 5757 5764 5771 5777 5780 5789 5797 5802 5809 5815 5818 5820 5824 5828 5836 5838 5842 5849 5855
5695 5695 5695 5696 5696 5695 5696 5697 5697 5698 5697 5696 5695 5694 5694 5695 5696 5699 5701 5702 5703 5709 5717 5725 5734 5741 5746 5752 5760 5766 5772 5780 5788 5794 5801 5803 5806 5807 5814 5821 5827 5832 5836 5844
5689 5689 5689 5688 5688 5688 5687 5688 5688 5688 5687 5684 5682 5680 5679 5679 5680 5681 5684 5685 5687 5689 5693 5702 5712 5722 5729 5734 5743 5749 5757 5764 5772 5779 5785 5790 5797 5795 5804 5810 5815 5818 5826 5833
5678 5679 5679 5679 5679 5680 5679 5679 5678 5677 5676 5675 5673 5670 5667 5664 5664 5665 5667 5668 5670 5671 5673 5676 5687 5700 5709 5714 5723 5735 5741 5747 5757 5763 5768 5776 5782 5786 5792 5799 5803 5808 5812 5820
Wind_Speed
21 22 20 22 24 24 26 26 24 23 21 22 22 16 20 21 18 16 18 14 10 10 12 12 11 17 19 17 16 17 15 14 14 13 13 13 14 15 18 17 15 16 15 15
22 20 23 25 26 27 28 30 30 29 27 24 25 23 16 16 16 23 15 15 15 11 12 13 12 14 19 20 19 17 17 15 13 13 13 13 15 15 17 18 16 16 15 14
24 23 24 26 28 27 26 28 31 32 31 27 25 24 20 18 17 19 18 14 13 14 12 15 15 15 17 19 20 20 17 15 14 12 14 15 15 15 15 18 18 16 17 14
27 29 27 26 25 25 25 26 29 32 30 30 27 23 19 17 17 18 19 12 11 13 18 14 19 18 18 21 22 21 19 16 15 14 15 16 14 13 15 16 16 16 16 16
30 31 30 27 25 23 27 31 32 33 30 29 29 26 22 17 17 17 19 14 14 16 17 16 22 22 22 22 23 24 22 19 17 16 16 16 14 13 11 12 15 14 15 16
33 34 33 31 31 26 29 31 32 32 32 29 29 25 25 23 24 29 27 21 20 19 21 18 22 23 22 24 25 24 24 23 21 18 17 19 18 16 13 11 13 13 13 15
35 36 35 34 34 32 31 31 34 35 34 32 31 26 23 27 27 26 24 22 21 24 24 22 20 19 19 21 23 24 25 25 24 22 19 20 20 18 15 12 10 11 11 12
33 36 36 36 37 35 35 34 33 35 34 34 33 32 26 26 26 29 27 24 19 12 20 24 25 24 22 23 25 26 27 26 26 25 23 21 20 18 16 13 11 10 10 9
29 32 34 35 37 38 37 37 36 34 36 38 40 37 32 30 29 27 27 27 23 19 16 22 24 23 21 19 21 24 29 29 28 27 26 24 22 21 18 16 13 10 8 7
26 29 32 33 34 38 38 39 39 39 39 40 40 38 38 35 35 32 30 26 25 20 21 21 22 27 24 22 24 28 28 30 31 31 28 25 25 23 23 20 15 13 10 7
21 24 27 29 32 33 36 39 40 40 41 42 40 40 38 38 38 36 33 29 28 26 23 23 25 30 30 28 25 27 28 31 32 32 31 28 26 27 24 21 20 17 13 11
21 24 26 29 30 31 31 34 39 41 40 42 42 41 41 40 38 37 36 34 33 31 30 28 29 31 32 34 30 29 30 30 33 34 35 34 32 29 27 25 23 22 20 16
25 29 32 31 32 32 33 33 34 37 38 42 43 43 41 41 38 38 36 35 37 40 36 37 35 32 31 34 32 32 30 29 32 35 37 38 36 34 32 30 28 26 25 22
27 32 34 36 37 36 35 33 34 34 37 39 41 41 42 42 40 40 38 38 38 39 41 41 40 39 34 34 34 33 33 34 33 34 38 39 39 38 38 36 34 31 30 28
28 33 34 37 38 38 38 37 36 34 35 37 39 39 40 41 41 39 41 42 41 42 40 42 43 43 39 39 37 36 36 36 33 34 35 39 41 41 41 41 37 35 34 32
26 28 30 32 35 36 37 38 38 38 38 40 39 39 41 42 43 40 39 45 47 44 43 42 44 49 46 41 39 40 41 40 38 38 37 37 41 43 42 43 42 39 37 36
27 27 29 30 32 33 35 37 39 40 40 41 41 42 42 41 43 44 42 43 48 52 50 47 46 48 51 47 45 45 44 46 45 42 39 38 36 36 42 45 45 44 41 40
27 27 28 28 30 32 33 32 34 36 40 43 44 45 46 47 45 44 45 45 49 53 56 55 53 50 53 53 51 50 51 47 50 47 46 44 42 40 40 39 44 46 47 44
27 28 27 27 29 32 33 33 33 34 36 39 43 47 50 50 50 49 49 47 49 55 58 60 60 58 57 57 56 55 48 47 54 51 52 50 46 44 43 42 43 47 50 48
25 30 31 30 27 29 32 32 32 31 34 38 42 44 48 52 54 55 54 53 50 55 62 62 62 58 58 62 60 60 58 52 53 58 54 54 55 54 50 51 49 47 49 51
19 25 29 32 32 31 30 30 32 33 33 35 40 44 48 49 53 57 59 59 57 55 60 68 63 60 53 55 60 62 62 54 55 57 58 56 57 61 58 57 53 52 49 52
8 10 15 22 29 31 31 33 34 36 37 38 39 39 43 48 50 51 59 63 63 62 60 68 72 69 63 58 53 61 64 63 57 57 63 64 55 66 65 63 60 54 52 50
10 9 7 11 15 20 22 24 28 34 39 43 45 46 45 45 48 53 54 60 67 68 66 65 72 75 71 67 67 46 56 62 64 60 56 60 63 61 72 64 59 55 59 54
16 13 13 11 11 12 13 13 16 21 24 28 38 47 50 50 50 49 52 56 60 70 74 73 69 80 79 76 70 65 52 54 60 54 62 61 49 56 58 60 67 70 55 52
24 25 27 25 24 22 25 24 23 26 26 34 33 35 43 50 51 53 51 54 55 54 70 80 78 72 83 80 76 75 66 69 61 55 54 67 40 37 51 53 53 43 49 54
28 28 30 31 34 33 34 33 32 31 32 31 32 35 37 39 47 51 51 51 52 56 57 70 85 83 79 85 84 79 74 61 64 68 59 53 51 46 42 40 31 44 44 52
Wind_Direction
223 223 217 213 214 209 204 205 206 211 208 202 208 191 177 169 159 161 152 163 169 183 189 200 166 173 173 172 165 163 165 160 141 131 128 126 121 114 113 112 112 112 110 113
223 219 215 214 212 212 206 205 209 208 211 203 214 217 201 189 180 161 155 170 169 183 187 191 183 172 176 176 173 173 176 165 144 143 136 133 129 124 123 123 119 115 115 110
221 218 215 214 215 212 213 213 214 215 214 206 210 221 209 209 200 194 181 182 191 194 190 189 195 180 180 178 182 176 187 170 147 152 151 147 146 138 137 129 125 118 118 118
219 220 220 219 217 215 212 212 217 222 220 213 204 214 213 210 212 213 198 182 186 196 186 185 197 182 181 188 188 182 188 183 162 167 170 161 155 149 144 136 126 123 121 121
220 220 221 222 218 213 212 214 215 221 222 222 214 207 206 202 206 196 188 172 164 170 172 194 193 195 190 189 191 187 188 185 182 181 177 166 167 159 156 147 131 128 127 123
221 220 221 218 219 210 212 216 220 224 225 222 226 215 206 204 194 197 197 190 175 166 165 178 199 201 200 196 188 192 192 188 188 190 187 177 173 172 168 162 145 137 134 123
224 223 221 221 219 213 215 212 218 223 227 227 226 225 214 210 208 218 213 212 205 184 173 175 188 204 211 203 194 188 199 194 195 194 194 185 181 181 174 170 165 150 137 124
224 224 224 220 221 218 217 217 217 223 231 230 228 229 219 217 211 212 211 210 209 192 193 186 183 192 197 206 196 188 194 202 202 202 198 196 189 189 184 178 180 178 155 135
219 223 225 222 220 219 217 217 218 220 224 226 231 231 226 219 220 216 215 210 209 206 199 212 203 194 195 201 211 200 192 198 208 208 205 202 196 193 194 196 192 199 195 159
217 221 223 223 221 222 218 220 218 219 222 226 229 230 230 226 223 223 219 219 212 205 206 208 209 204 200 203 211 212 206 197 203 210 211 210 206 204 201 198 203 208 216 207
216 219 223 224 224 223 223 220 221 221 223 226 230 231 233 231 230 227 226 223 220 214 215 218 199 208 201 204 206 217 217 211 207 211 214 214 215 215 211 209 208 211 214 226
212 218 223 226 227 225 224 223 224 226 224 226 230 231 233 234 233 234 235 228 227 225 217 214 214 220 217 206 205 211 218 217 216 212 214 215 215 221 219 217 219 221 217 219
216 219 219 224 226 229 230 228 227 230 232 231 233 233 234 236 235 234 233 236 231 230 228 216 216 221 223 224 216 212 212 219 221 220 220 219 218 219 221 217 219 224 228 223
217 217 221 226 228 229 228 231 233 231 233 237 238 237 235 237 234 234 234 230 234 235 229 227 222 218 220 225 225 222 221 220 223 225 226 224 222 220 221 222 219 219 226 229
229 226 223 226 230 231 233 234 235 238 239 238 240 242 241 237 236 230 229 231 230 234 232 228 223 220 218 218 225 227 227 228 229 227 228 228 227 224 224 225 225 223 224 227
239 237 231 227 232 234 234 235 237 238 241 245 245 243 243 242 240 235 227 225 226 230 233 230 228 226 221 221 222 221 223 228 229 227 229 230 229 230 228 228 229 228 228 229
243 242 240 238 236 236 235 235 237 240 242 244 245 246 245 244 245 243 235 224 224 225 230 233 232 228 230 225 221 225 225 227 227 226 229 229 229 231 232 230 231 232 229 232
238 238 240 237 238 238 235 235 236 237 239 242 244 246 246 245 242 240 241 232 222 227 225 230 233 232 230 230 228 230 227 231 226 225 229 230 230 229 232 235 234 235 235 231
243 237 230 233 235 241 242 242 240 239 239 241 243 244 245 245 245 244 241 237 230 221 228 227 231 231 235 235 233 232 232 230 227 225 228 232 227 233 237 240 235 234 234 234
246 243 238 229 227 235 237 239 242 244 246 245 245 244 245 246 245 244 243 241 236 228 224 227 227 231 231 238 238 236 230 232 232 224 226 229 232 230 232 235 242 239 233 233
260 253 246 240 234 230 235 240 245 245 246 248 248 247 246 246 248 249 246 244 241 235 231 227 228 229 235 238 239 239 238 233 226 225 226 231 237 237 239 243 241 240 236 233
282 271 259 251 249 248 247 246 248 251 251 249 250 250 247 245 243 248 250 248 244 240 235 230 229 228 228 235 235 238 233 233 223 225 229 233 242 245 243 241 235 235 236 231
276 289 283 260 251 251 252 256 260 262 261 259 258 254 252 251 248 247 253 253 251 244 239 234 228 230 230 230 231 236 237 238 238 234 241 240 237 237 241 233 237 232 236 234
253 247 244 245 255 242 246 262 280 287 294 291 273 261 256 255 253 252 250 255 258 248 242 237 232 228 231 228 234 231 234 234 236 235 228 230 226 232 230 228 233 241 235 233
264 262 260 257 261 266 276 282 284 287 295 300 302 283 268 260 258 255 256 253 257 261 250 239 234 231 229 232 228 233 233 237 235 234 238 234 228 221 222 236 245 233 240 236
263 264 263 264 265 266 268 273 279 282 288 292 294 295 291 277 264 260 258 258 257 257 263 249 233 229 229 232 232 230 232 232 238 237 241 233 233 244 244 232 237 230 232 226